Theta_e
355 350 354 349 352 352 360 357 357 352 348 354 354 348 345 339 333 330 331 331 338 341 347 342 342 357 353 352 353 351 352 354 353 350 354 353 352 351 348 348 346 346 346 346 346 347 348 348 349 350 351 350 352 354 353 352 352 351 351 351 351 352 353 352 351 350 349 348 346 344 345 347 348 350
358 354 352 355 353 356 363 356 354 353 350 348 349 347 349 343 334 334 332 329 338 340 345 344 345 349 351 356 354 356 351 355 357 352 350 351 352 348 347 348 347 346 345 344 343 344 346 346 346 345 345 346 348 350 351 351 351 351 351 351 352 351 351 349 348 349 349 349 348 346 346 347 348 348
358 357 354 353 352 355 355 352 352 356 352 350 351 349 348 348 343 342 336 333 338 349 341 344 351 351 351 355 355 355 354 356 355 352 351 351 352 350 350 347 346 345 344 342 341 340 340 340 340 340 341 342 344 346 347 348 348 349 349 350 351 350 350 348 346 347 347 348 348 347 347 348 348 348
359 356 355 356 351 354 358 357 356 355 355 354 353 353 352 350 349 345 342 338 339 344 348 349 351 354 352 354 354 352 355 359 358 354 352 352 354 354 353 351 347 344 341 341 340 338 336 335 337 339 341 342 344 346 346 345 346 346 346 347 347 347 348 345 345 345 345 345 345 346 346 347 347 347
357 357 354 355 360 361 357 356 357 357 357 355 355 356 353 349 349 347 344 340 341 345 350 352 353 356 356 355 353 354 355 357 358 358 358 358 357 356 355 356 352 347 343 340 339 338 337 336 337 338 340 342 343 345 346 345 344 343 342 341 340 340 342 341 341 344 345 344 344 343 344 345 346 345
360 360 355 355 357 359 358 358 357 356 355 356 353 353 353 352 352 350 347 344 342 342 346 351 355 356 358 354 353 354 355 355 356 357 358 360 360 360 360 359 360 352 347 342 339 338 337 336 336 336 337 339 340 340 341 340 338 338 338 336 335 336 335 336 337 340 341 342 344 344 344 343 344 344
357 358 358 357 358 362 357 356 357 356 355 354 354 353 354 352 353 354 352 347 346 346 347 351 351 350 353 353 354 355 357 358 359 358 358 359 361 363 361 360 360 354 348 344 342 340 338 337 336 335 336 338 337 336 335 333 332 332 331 330 332 333 333 333 335 337 337 339 341 343 343 343 343 343
357 356 356 358 359 359 357 356 356 356 356 355 354 353 355 356 356 356 357 354 350 348 345 344 349 351 351 353 357 360 360 359 358 358 358 359 360 361 361 361 360 356 348 345 341 340 339 339 339 339 338 336 333 331 330 329 330 330 329 328 328 328 328 328 329 331 332 333 334 337 339 341 341 339
358 357 356 356 357 357 356 355 356 356 355 355 354 353 353 352 352 353 352 351 351 346 346 347 350 353 354 356 357 357 355 356 356 358 358 359 358 358 359 361 362 353 349 350 348 345 343 343 342 339 337 336 334 332 331 330 329 328 327 326 326 326 327 327 326 327 327 328 329 329 331 334 336 336
360 359 358 357 357 357 356 355 356 356 356 356 356 355 354 354 353 351 350 351 351 350 350 349 350 349 354 353 355 357 357 356 355 355 353 353 355 356 358 364 368 365 363 362 361 352 350 348 341 339 338 335 333 334 333 331 328 327 325 322 321 323 324 324 325 325 325 325 326 328 329 330 331 332
361 361 360 359 358 357 356 356 355 355 355 356 356 356 355 355 355 355 355 355 354 354 352 352 353 353 353 354 352 355 357 357 353 350 350 351 354 360 357 357 360 361 361 356 351 352 350 345 346 336 332 334 335 336 333 330 327 325 323 321 322 323 322 322 324 325 324 324 324 323 322 323 328 331
359 360 360 360 359 359 358 357 357 356 356 358 357 357 357 357 355 354 353 353 351 350 351 350 351 349 349 347 352 354 353 352 351 354 353 349 352 356 355 356 356 357 357 356 358 355 352 349 345 338 339 340 339 337 336 333 332 328 324 323 326 326 323 323 323 323 322 322 320 320 320 319 322 325
358 359 359 359 359 360 367 364 361 361 361 357 356 356 357 356 356 355 354 354 351 353 351 351 350 350 350 350 350 349 348 348 349 350 355 351 352 354 354 355 356 356 354 355 355 354 351 349 349 350 350 351 348 342 338 336 337 332 324 324 326 326 325 323 323 323 322 322 321 320 319 320 321 324
356 357 358 360 369 358 357 355 352 349 354 358 359 357 357 356 355 354 353 352 353 352 351 351 350 349 349 350 349 349 348 350 349 353 353 353 351 349 349 351 352 356 353 351 347 347 350 350 349 350 350 350 342 339 338 337 334 330 326 326 325 326 326 324 324 323 323 322 321 321 319 319 321 321
354 356 356 356 364 370 357 353 346 345 343 347 349 351 358 363 357 354 354 353 353 352 352 352 351 350 350 351 351 350 352 349 352 352 350 352 349 346 345 346 350 352 351 345 344 345 349 350 348 348 343 340 338 338 338 335 333 329 328 327 327 327 327 327 327 326 323 322 321 321 321 321 321 320
354 353 354 355 356 356 357 356 354 348 344 340 342 342 344 350 356 355 356 355 353 353 352 350 352 350 350 350 349 351 349 348 350 352 351 349 348 346 345 345 345 349 349 343 343 344 348 349 343 335 337 337 337 337 333 331 331 329 328 328 328 328 327 327 327 327 325 324 324 325 324 323 323 322
354 353 353 353 355 356 367 366 356 353 352 341 336 339 341 344 344 340 341 346 356 352 349 348 346 347 348 348 349 350 348 350 350 349 350 349 348 347 347 347 344 348 348 344 338 340 344 339 334 332 334 335 336 337 335 331 330 329 328 327 328 327 326 325 325 325 325 324 323 322 321 319 319 319
354 353 353 352 352 352 353 354 356 354 352 352 349 346 346 347 351 345 334 332 333 341 347 345 344 346 347 347 348 351 352 352 353 351 351 348 348 349 349 349 349 350 351 344 339 332 332 336 332 330 332 335 335 336 332 328 329 329 326 326 325 324 323 323 324 324 324 324 322 320 318 317 316 316
356 354 354 353 352 352 351 351 357 355 353 351 351 349 348 348 349 351 352 349 347 343 345 346 347 349 349 349 350 351 355 360 360 357 354 353 353 352 347 345 347 346 339 335 331 326 329 331 330 330 332 334 334 335 330 328 328 326 324 325 325 323 322 322 323 322 323 323 321 319 318 316 314 312
358 357 356 354 353 352 352 353 346 356 357 354 352 351 351 350 351 353 355 344 346 354 350 348 349 351 352 345 354 354 358 359 355 359 354 350 346 343 339 337 341 340 338 336 330 326 323 328 331 331 333 333 331 333 334 330 328 325 325 324 323 322 320 320 321 321 322 322 321 320 317 312 311 310
358 359 358 356 355 354 353 348 336 336 356 358 355 354 354 355 355 355 358 342 334 335 333 333 335 336 336 334 332 331 330 346 351 349 347 346 343 337 331 334 335 333 334 335 333 327 325 330 329 330 331 331 329 331 332 334 328 325 323 322 322 320 320 320 319 320 321 320 320 319 317 311 310 311
358 360 368 369 357 356 354 341 334 333 343 352 356 358 358 358 359 360 363 365 357 335 332 333 333 332 332 335 333 330 327 326 337 349 346 347 339 336 334 332 331 334 334 334 335 328 325 331 331 329 328 326 329 331 332 333 332 329 323 321 321 320 320 320 319 320 319 318 318 317 313 310 313 318
354 354 363 369 363 359 352 337 333 331 340 348 348 352 356 357 358 361 362 362 358 351 349 350 349 347 343 345 345 349 339 334 343 349 352 350 341 336 335 335 332 327 331 336 335 329 326 329 331 327 325 322 326 329 331 332 333 329 328 327 326 321 322 322 320 319 318 316 315 315 311 311 316 319
353 353 354 355 340 332 333 332 328 326 327 348 351 351 351 351 352 357 358 356 354 352 353 353 353 352 353 352 352 352 354 354 354 348 350 351 346 341 337 337 331 327 328 335 336 331 330 329 329 328 327 322 321 327 330 331 331 328 327 325 325 324 325 326 324 322 318 316 314 313 309 308 314 321
353 353 353 353 344 331 325 322 322 322 319 332 353 355 353 354 353 355 357 357 369 358 355 354 354 353 353 355 356 356 357 357 358 354 352 353 349 344 338 333 332 330 331 337 337 333 329 329 326 325 325 324 324 325 327 329 329 326 326 324 323 324 326 327 326 329 323 322 315 311 309 309 309 316
354 354 354 354 345 331 326 322 318 317 319 320 345 355 338 338 339 356 358 359 356 353 355 353 353 354 354 356 358 359 359 354 355 359 355 351 342 341 340 336 331 329 330 336 336 335 332 327 326 325 322 324 323 323 324 326 326 325 324 323 323 324 326 325 326 326 328 333 327 317 313 311 311 312
355 356 356 356 346 329 322 319 316 316 317 321 335 329 329 330 329 351 356 353 353 348 349 351 352 350 351 353 352 352 341 337 338 337 338 341 343 345 345 341 338 336 336 338 341 338 331 326 327 325 323 323 321 322 322 321 321 325 322 322 323 323 325 325 324 324 326 331 330 319 317 314 313 314
357 356 356 352 334 324 317 317 318 319 320 333 323 319 326 326 334 351 350 348 351 348 345 345 347 347 349 351 351 346 338 337 337 339 342 342 342 341 341 342 346 342 340 339 339 336 329 326 326 327 327 323 321 320 320 320 321 320 319 321 322 323 324 324 323 324 325 329 330 327 325 324 323 322
358 345 335 333 328 324 318 318 320 321 321 319 321 321 324 339 345 347 349 349 349 345 345 344 346 347 348 350 349 342 339 343 344 343 342 343 343 343 344 341 340 339 344 344 338 332 329 328 327 328 326 324 324 322 319 318 318 319 319 318 318 321 324 324 323 322 323 326 329 326 325 325 324 322
340 332 329 326 326 327 325 329 333 337 338 325 323 324 329 344 347 346 347 347 346 346 344 343 344 345 348 349 343 342 342 341 339 340 336 335 339 339 335 333 334 337 341 339 337 332 330 329 329 328 324 324 324 322 319 319 317 318 318 317 318 322 323 322 321 321 322 323 326 324 324 325 325 324
335 325 333 333 327 330 327 331 333 334 335 331 331 333 337 342 346 347 347 348 348 345 344 344 346 346 348 343 339 338 339 340 339 340 338 336 335 336 334 332 333 334 336 335 338 333 333 331 329 328 325 325 324 321 321 320 316 316 316 317 318 316 320 321 320 319 321 322 323 322 322 323 325 327
346 343 330 326 338 336 337 340 341 339 337 336 335 337 338 341 344 349 354 354 346 346 347 346 347 347 338 337 338 339 338 338 340 340 337 337 334 334 333 331 331 332 330 330 333 339 343 331 331 331 328 323 320 320 319 317 316 315 315 316 317 317 320 319 317 318 320 320 320 320 320 320 320 322
348 344 344 345 343 343 345 344 343 342 340 339 338 340 340 342 344 345 345 347 347 347 347 349 348 340 337 338 339 338 337 338 337 336 335 335 334 334 332 330 330 329 325 324 329 332 328 329 334 325 322 321 321 320 317 315 315 314 313 314 315 317 318 319 317 316 319 318 317 318 318 318 319 320
349 346 346 346 346 346 346 346 345 345 344 343 343 344 338 343 345 345 345 346 347 349 349 350 342 337 337 336 336 336 336 334 335 333 330 331 333 330 330 329 328 329 324 324 326 325 325 324 326 324 322 320 318 316 318 317 314 314 313 312 313 315 317 318 316 316 316 317 316 316 315 316 317 318
348 348 346 346 346 346 347 346 346 346 345 344 344 345 344 345 345 342 346 347 345 346 346 344 340 337 336 335 334 332 332 333 333 332 332 332 333 331 330 329 327 326 324 325 325 322 321 320 322 322 320 319 319 315 320 317 314 314 312 312 313 314 315 317 316 315 314 315 316 314 314 314 314 316
344 348 348 347 347 347 347 347 347 348 348 346 346 345 344 344 345 345 345 345 348 344 342 340 337 336 335 334 332 332 332 330 332 331 329 331 331 332 331 330 327 326 326 325 322 322 321 320 319 316 315 315 313 312 313 319 317 313 313 312 312 314 314 314 313 312 313 312 314 313 311 311 312 314
343 345 347 349 349 348 347 349 349 349 349 348 347 347 346 344 344 345 346 343 346 342 341 338 336 334 333 333 331 330 330 330 330 332 331 330 331 332 330 329 331 326 326 326 324 322 323 320 319 316 314 312 311 310 311 315 314 313 313 312 312 314 314 312 312 311 311 310 310 312 312 312 311 312
343 345 345 347 348 349 349 349 348 348 348 348 348 347 347 346 345 347 346 343 340 338 336 336 333 331 331 331 331 330 331 329 328 327 327 331 331 330 328 325 323 324 324 323 326 323 321 319 319 318 316 313 310 310 310 314 315 314 309 312 312 314 315 311 310 309 309 309 309 310 310 310 309 310
345 345 344 346 346 349 349 349 349 348 348 348 347 345 345 346 346 344 340 340 338 337 335 333 331 331 331 332 330 328 327 327 326 326 328 329 329 329 325 322 321 323 324 322 324 324 323 320 320 319 317 313 311 311 312 313 314 315 312 306 310 312 313 311 310 310 309 309 309 309 309 312 312 316
345 346 346 346 347 349 350 351 350 350 349 349 349 348 347 345 342 339 337 336 336 335 333 332 330 328 331 331 329 329 327 327 327 327 328 329 331 327 324 320 320 322 322 322 322 323 322 321 322 320 320 319 318 319 318 318 314 314 313 313 305 309 313 314 312 310 311 309 309 307 307 306 307 309
345 347 348 348 349 350 349 351 351 351 350 342 339 334 341 342 340 338 337 336 333 332 331 331 330 331 331 330 329 329 327 327 329 328 326 328 326 325 324 322 321 323 321 321 321 320 320 323 327 325 327 322 322 323 318 314 313 313 312 313 310 307 305 311 315 313 312 312 310 306 306 306 306 305
346 347 346 348 350 351 351 351 350 345 339 339 341 339 339 339 336 329 332 331 332 331 331 331 331 329 330 330 331 328 326 325 326 326 325 326 323 322 323 321 321 322 322 320 320 319 321 325 332 333 326 322 318 316 313 312 310 311 313 312 313 311 308 307 308 313 316 315 309 306 305 306 305 302
345 347 345 339 339 339 339 340 340 339 337 338 337 337 335 335 333 331 332 333 333 332 332 332 331 330 331 331 330 328 326 325 323 324 326 325 323 323 322 320 321 322 324 322 320 322 323 325 326 326 324 323 321 318 314 314 314 314 314 313 311 312 313 313 308 308 310 313 311 310 308 306 302 300
344 340 337 337 337 336 337 338 338 338 337 337 336 335 335 333 333 334 334 333 333 332 332 331 330 330 330 329 329 329 328 327 327 327 327 325 325 324 324 323 323 322 321 319 322 323 325 325 324 325 320 318 319 320 316 316 315 315 317 314 313 311 311 311 313 312 311 311 311 311 312 311 310 312
335 335 334 334 334 334 333 334 334 334 334 333 334 334 332 333 332 333 333 332 331 330 328 329 330 330 330 329 330 329 327 325 326 327 325 323 322 322 322 322 321 321 322 324 323 320 321 322 322 322 321 320 320 319 320 319 317 316 316 316 316 314 311 312 310 309 308 309 311 310 309 311 312 310
Wind_Speed
5 5 4 5 3 2 1 2 5 5 3 4 3 3 4 3 1 0 2 2 1 3 2 1 3 3 4 3 3 3 4 7 8 5 5 5 4 8 14 16 16 17 17 17 17 18 18 19 19 19 20 21 22 21 21 22 22 22 22 22 23 23 23 23 22 21 21 21 21 21 21 19 21 22
3 4 4 3 4 3 3 2 3 3 4 3 2 2 2 5 3 3 1 3 2 3 2 1 2 4 4 4 5 4 5 8 9 6 6 6 6 11 13 15 15 16 16 16 17 17 18 18 19 19 19 20 21 22 22 22 22 22 23 23 23 23 23 23 22 22 22 22 22 22 22 21 21 22
4 4 4 4 4 3 4 3 2 3 4 4 3 2 2 3 4 4 2 1 4 1 1 2 1 2 4 4 3 4 5 8 9 6 5 5 9 13 10 12 13 14 15 16 17 17 18 18 18 18 18 19 19 20 21 21 21 22 22 23 23 23 23 23 23 23 23 23 23 23 23 23 23 23
4 5 4 5 6 4 3 3 3 3 3 5 5 4 4 4 5 5 4 4 8 3 2 4 6 5 4 5 6 6 5 5 6 3 3 5 8 7 7 10 13 13 15 16 16 17 18 18 18 18 18 18 18 18 19 19 20 21 22 23 23 23 23 22 22 22 22 23 23 23 23 23 23 24
5 5 5 4 4 4 3 3 2 3 5 4 5 5 5 6 5 5 5 5 7 5 3 3 4 5 4 4 3 5 5 5 5 5 4 4 4 5 6 6 10 13 14 14 15 16 16 17 17 18 17 17 16 16 17 19 20 21 21 22 22 22 22 21 21 21 21 22 23 23 23 23 23 23
5 4 6 6 5 3 3 3 3 3 3 4 5 5 6 6 5 5 5 6 6 7 2 3 4 4 3 4 2 4 6 8 6 6 7 6 5 7 6 6 6 10 13 14 14 14 14 14 14 14 15 15 15 16 17 18 19 20 21 21 21 21 21 21 20 20 20 21 22 22 23 23 23 23
5 4 5 6 5 4 4 4 5 4 4 4 5 6 4 5 6 5 6 5 6 6 5 4 3 3 2 3 5 6 6 6 6 7 7 7 6 6 6 6 5 7 10 12 14 13 11 10 10 12 13 14 14 14 15 16 17 18 18 19 19 20 20 20 20 20 19 19 21 22 22 23 22 22
6 6 4 5 5 5 5 5 5 6 5 5 4 4 5 6 7 6 5 6 6 5 4 2 3 3 3 5 5 6 6 7 7 6 7 7 7 7 6 6 4 5 11 13 12 11 10 10 11 13 13 12 12 12 13 14 15 15 16 16 17 18 19 19 19 19 19 19 19 20 21 22 22 22
7 6 6 6 5 5 6 5 6 6 6 6 6 6 4 5 5 4 5 5 5 4 5 5 3 3 4 4 5 5 7 7 6 6 6 7 6 5 5 3 4 5 9 12 12 11 11 10 12 13 13 13 14 14 14 14 14 14 13 14 14 15 15 16 17 18 18 17 17 18 19 20 21 21
7 7 7 6 6 5 6 7 6 6 7 6 6 6 6 6 4 4 4 4 5 4 5 4 5 3 5 5 5 5 5 7 7 6 6 5 4 3 4 3 3 3 5 6 7 7 8 9 10 12 14 15 14 15 15 15 12 10 10 9 10 11 12 13 14 15 15 15 15 15 17 18 18 19
8 8 8 7 7 7 7 7 7 6 6 7 7 7 7 5 4 4 5 4 4 4 4 4 5 6 4 5 7 5 4 5 5 6 7 5 3 1 2 5 4 3 5 9 10 8 8 8 7 11 14 14 15 15 11 9 10 9 9 8 9 10 11 12 13 14 15 15 14 13 14 16 17 18
9 9 8 8 8 9 8 8 7 7 7 6 6 7 6 6 6 6 6 5 5 5 4 5 6 5 5 3 4 4 4 6 6 3 2 2 3 4 3 3 5 4 4 7 6 4 6 7 9 11 10 12 12 10 6 8 6 8 8 10 11 11 11 12 12 14 15 15 14 13 12 13 14 16
9 9 9 9 8 9 11 13 11 9 9 6 7 6 6 6 6 6 5 6 6 6 5 6 5 6 7 6 5 6 5 6 6 2 1 2 2 3 5 6 4 3 4 6 6 6 6 7 7 7 7 8 8 5 5 6 8 8 7 9 11 12 13 14 14 13 14 15 15 14 12 11 12 13
9 10 9 9 14 15 15 14 15 15 15 14 10 8 7 7 7 6 6 6 6 6 6 7 6 6 8 7 5 5 5 3 1 2 3 4 4 3 4 5 4 4 4 4 7 7 6 5 7 6 7 6 7 7 7 6 7 7 9 10 11 13 14 15 16 16 15 15 15 14 13 11 11 11
10 10 10 9 10 13 14 15 18 17 17 16 16 15 13 11 9 7 7 7 6 6 7 6 6 7 8 8 5 4 4 2 2 3 2 3 2 2 4 6 6 3 1 4 5 8 6 4 6 6 6 7 8 8 8 13 14 12 12 14 16 17 18 18 18 18 17 16 15 15 13 12 11 11
9 9 9 9 9 8 8 10 12 15 17 18 17 17 15 15 15 13 10 8 6 6 6 5 7 5 7 7 4 4 3 4 4 3 3 2 2 2 2 4 5 5 2 3 5 8 6 3 4 6 6 7 7 9 11 14 14 14 17 18 18 19 19 20 20 19 18 17 16 15 14 12 11 11
8 8 8 8 7 9 15 11 9 10 12 15 18 18 18 16 14 13 13 10 8 6 6 7 8 8 6 7 8 4 3 1 4 4 3 2 2 2 4 5 3 7 2 1 2 4 5 5 6 6 6 6 6 8 10 13 12 16 17 18 20 20 19 20 20 21 20 19 17 17 15 13 12 11
9 8 9 9 8 7 6 6 8 9 11 11 12 11 9 9 11 13 13 12 10 6 7 7 9 10 5 9 8 7 3 3 4 4 4 2 3 4 5 4 5 4 2 0 1 1 4 5 6 6 7 5 6 6 10 13 17 17 16 16 19 20 20 21 21 21 21 20 17 15 14 13 13 10
10 9 8 8 9 9 8 8 6 7 8 8 8 9 10 10 10 9 9 9 8 7 7 8 11 12 8 9 10 8 5 5 5 3 3 3 3 3 2 3 5 1 3 2 2 1 3 2 6 6 6 6 6 5 7 14 17 15 14 17 19 19 20 21 21 21 21 19 16 14 14 13 12 10
10 10 10 8 9 9 10 13 14 10 7 7 8 9 9 9 8 8 10 11 10 9 9 10 11 11 11 12 9 6 5 5 2 1 1 2 2 3 4 4 4 0 1 3 3 0 2 1 3 6 6 3 4 5 6 12 15 13 14 16 17 18 19 19 20 20 20 17 15 15 13 11 10 8
8 9 10 10 10 9 9 13 15 15 11 7 9 9 9 8 8 9 8 11 15 15 16 17 17 17 17 13 8 6 5 4 2 2 3 6 2 1 3 3 2 2 1 3 1 1 3 4 2 6 6 5 3 4 7 7 10 12 15 15 17 18 19 19 19 19 18 16 16 15 13 10 8 7
6 7 13 13 11 11 11 13 15 15 11 8 9 8 9 8 8 9 7 6 8 15 17 16 15 13 12 10 9 8 8 7 4 4 7 4 3 3 2 3 2 3 1 2 2 4 2 5 4 5 3 2 2 4 6 8 6 9 13 15 15 17 18 19 18 18 16 15 15 15 11 8 7 5
7 7 7 11 11 11 12 14 15 15 12 9 9 8 7 8 9 10 6 7 5 3 3 6 7 8 9 8 7 8 12 12 9 7 8 4 4 4 4 3 2 3 1 2 3 5 4 5 6 5 6 3 1 2 7 7 6 8 9 10 10 15 17 18 17 17 16 13 16 16 12 9 6 4
10 9 8 10 13 13 13 14 15 14 14 10 8 7 8 8 11 6 5 5 5 4 5 5 6 8 6 5 5 6 7 8 8 8 7 5 5 4 3 1 1 1 1 1 2 3 2 1 4 3 4 3 6 7 7 7 6 7 8 9 8 12 14 14 14 17 17 12 14 14 13 12 9 3
10 10 10 9 13 15 14 14 14 13 14 13 8 8 8 10 8 5 5 5 7 5 4 5 4 5 4 5 5 5 6 7 5 5 5 5 4 4 2 3 1 0 2 2 1 2 1 1 3 2 3 1 1 6 6 5 6 7 8 8 9 9 8 10 9 10 14 12 11 12 12 11 11 9
9 10 10 10 14 18 16 14 14 15 13 14 9 9 12 11 8 7 6 5 3 2 3 3 3 3 4 4 5 5 5 5 6 3 4 2 3 4 4 5 3 1 1 4 2 1 0 2 2 3 2 4 4 3 6 8 5 8 6 7 7 7 8 10 10 10 10 8 6 7 7 11 8 10
11 10 10 11 16 16 16 15 14 14 15 10 10 14 13 11 12 8 6 5 5 3 3 2 3 3 3 3 3 3 1 4 5 6 6 6 5 5 4 3 4 2 3 4 1 1 1 1 0 3 3 1 3 5 3 6 9 11 10 9 8 7 7 9 9 9 9 9 6 10 7 6 8 8
11 10 10 11 15 14 15 16 16 16 14 12 15 14 14 11 9 6 6 6 6 4 3 5 3 2 1 1 0 0 4 4 4 6 6 5 4 4 3 2 1 0 1 3 2 2 3 3 1 0 0 2 3 4 5 4 4 6 10 10 6 6 6 9 9 10 10 9 7 8 8 9 7 5
10 12 15 14 14 14 15 17 17 15 16 17 16 15 13 10 5 6 6 6 5 5 5 5 3 2 2 3 1 4 4 4 4 5 3 3 2 3 4 3 1 1 2 1 1 3 3 2 1 0 0 1 4 1 3 3 4 6 7 10 10 9 7 8 8 8 9 9 7 9 9 8 7 5
14 13 12 10 8 8 8 7 7 8 10 13 14 10 8 6 6 6 6 5 5 5 4 3 4 3 2 2 4 4 5 6 6 4 3 3 3 4 5 4 3 3 2 1 4 4 3 3 2 2 2 3 5 4 3 3 5 6 5 6 8 6 5 9 9 9 9 9 8 9 8 8 7 5
5 5 4 6 6 5 6 6 5 5 4 3 4 5 6 7 7 6 6 6 6 5 4 3 2 3 4 4 6 5 6 6 6 6 6 6 5 5 5 2 1 2 2 0 4 3 5 2 3 2 2 3 4 3 1 1 4 6 6 5 6 6 8 7 7 8 9 8 7 6 7 8 8 8
6 6 4 6 4 4 4 4 4 4 4 5 5 6 6 7 6 6 6 4 3 3 4 3 4 4 5 6 6 6 7 8 8 7 6 6 5 4 4 2 1 1 1 1 4 4 4 2 5 5 4 3 3 0 1 2 3 4 5 4 3 4 5 7 8 8 8 7 6 7 8 8 9 9
5 5 5 5 5 5 5 5 5 5 5 4 5 6 6 6 5 5 5 6 6 6 6 6 7 6 6 7 8 8 8 7 6 4 4 3 4 1 1 1 2 1 1 1 3 4 3 4 6 6 6 4 3 2 2 2 3 2 3 5 4 5 5 5 7 8 8 7 8 6 7 7 8 8
9 8 8 7 7 6 6 6 6 6 6 5 6 6 6 6 6 6 6 6 6 6 7 7 7 7 8 8 8 7 5 3 3 4 6 3 2 2 1 2 3 3 3 1 5 4 1 3 6 6 5 3 3 2 1 3 0 2 1 2 3 5 5 3 5 6 7 6 6 6 8 8 8 8
9 8 8 8 7 7 7 7 7 7 7 7 7 6 7 6 7 7 6 7 6 7 7 7 7 8 8 7 5 5 6 6 4 5 3 5 4 4 4 3 4 3 3 2 6 5 3 4 5 4 2 2 2 2 2 1 2 1 1 1 0 1 4 4 4 6 6 6 6 6 6 6 8 8
11 9 9 9 9 8 8 9 8 8 7 7 8 7 7 7 7 7 7 7 8 7 8 8 7 7 6 6 6 6 6 6 7 6 6 6 6 5 4 6 5 3 2 3 6 5 3 4 5 5 1 1 1 1 4 2 2 3 1 1 1 2 2 3 3 3 6 6 6 6 7 8 8 7
10 10 10 10 10 10 10 9 9 9 9 8 8 8 8 7 7 8 8 7 7 7 8 8 7 7 7 7 6 6 7 8 7 7 7 6 6 6 7 4 2 1 0 1 6 5 3 2 2 5 2 0 1 3 4 3 4 4 0 2 0 1 2 2 3 5 4 4 4 5 4 4 5 5
11 11 12 11 10 10 9 8 8 8 9 8 7 7 8 7 7 9 7 7 7 7 8 7 7 8 7 8 8 7 6 6 6 6 6 6 6 7 6 6 3 2 1 1 4 4 4 5 5 4 4 1 1 1 4 1 1 1 4 1 2 1 1 4 5 3 2 2 2 1 1 4 3 2
11 11 11 10 10 9 9 9 9 9 9 8 7 7 8 8 7 7 8 8 9 9 8 8 9 10 9 8 8 7 6 5 4 4 5 5 6 6 6 6 5 2 0 2 0 3 3 3 5 5 6 5 3 2 3 2 2 3 2 6 2 1 0 4 2 0 0 0 1 2 1 0 1 0
9 7 7 7 8 9 9 8 8 8 8 9 9 7 8 8 8 9 9 9 9 8 8 8 8 7 7 7 7 6 6 5 6 6 6 6 5 6 7 6 5 4 2 2 2 3 6 6 6 6 6 8 7 5 4 3 2 0 2 2 6 5 3 4 2 2 1 3 2 1 2 3 3 2
7 7 7 8 7 6 7 8 7 7 2 8 12 10 2 8 11 10 9 8 7 7 7 7 7 6 7 7 7 6 6 5 5 6 5 5 6 7 7 6 4 4 4 3 4 5 5 7 9 12 7 4 2 4 4 2 2 3 3 5 4 2 5 5 3 5 3 3 4 3 2 1 0 1
8 7 5 5 6 7 7 8 5 3 8 9 9 8 9 5 5 9 9 9 8 6 6 5 7 8 7 6 6 6 6 4 4 4 5 4 6 6 7 6 5 3 4 5 6 6 6 3 4 3 3 3 2 1 3 6 6 4 3 2 3 3 3 5 7 6 6 6 5 2 1 0 1 1
6 5 5 4 3 2 2 3 5 7 8 10 9 6 4 5 6 7 8 9 7 8 7 8 7 7 6 7 6 6 5 4 3 3 2 3 5 6 6 5 5 5 6 6 5 5 5 3 1 2 2 4 4 5 6 6 6 5 2 3 3 3 2 4 5 7 7 8 8 7 5 5 5 1
5 5 5 4 4 4 4 4 5 6 9 10 12 12 10 8 8 10 10 10 10 9 9 9 8 8 7 6 6 5 5 5 3 1 1 3 3 3 4 3 4 4 5 3 2 3 4 4 3 3 1 2 2 3 5 4 6 4 5 3 2 3 5 3 3 5 5 6 9 8 7 8 6 6
5 6 6 5 5 5 5 4 5 5 4 5 6 7 7 7 9 9 9 9 7 6 6 6 7 6 6 5 5 6 4 4 3 2 1 3 3 3 2 2 2 3 4 4 4 3 3 3 2 0 1 2 1 1 3 3 4 5 2 4 5 5 4 3 4 6 5 6 7 8 7 6 6 5
Wind_Direction
212 212 220 218 218 235 235 116 144 151 122 124 128 139 145 155 122 290 326 289 277 304 19 14 318 15 356 327 300 271 248 246 246 247 240 240 235 234 232 235 238 241 243 245 247 249 251 252 253 253 254 254 255 254 255 256 256 256 256 255 255 254 253 252 250 247 244 242 239 237 234 230 229 231
193 218 222 210 222 230 212 205 169 149 137 118 137 140 150 134 147 175 209 280 237 273 308 103 18 344 330 284 281 269 271 272 265 257 250 247 248 245 237 237 239 243 247 251 253 254 254 254 255 255 254 255 256 258 258 258 258 259 259 258 257 256 254 254 253 251 248 244 242 239 236 232 229 230
216 209 216 219 221 224 227 244 214 169 143 154 156 188 154 163 151 163 156 272 286 188 290 290 321 319 287 286 282 277 262 264 259 254 250 251 251 254 256 251 248 249 251 252 253 255 256 257 257 257 256 255 255 258 260 262 263 263 263 263 262 260 257 256 254 252 250 248 246 242 239 235 232 232
216 224 205 196 211 225 208 189 192 186 192 169 175 186 189 193 183 167 166 196 262 266 254 292 300 289 287 303 306 297 296 281 280 272 267 263 269 264 255 257 251 245 244 247 250 253 255 257 259 259 259 259 260 260 263 266 267 267 266 265 265 264 262 259 255 253 252 251 250 247 244 241 238 235
216 217 225 209 200 191 178 200 197 171 195 198 191 194 188 204 204 177 189 208 250 286 252 244 262 276 298 295 260 291 295 301 304 309 287 269 260 261 260 261 261 260 259 258 257 259 261 262 261 263 265 269 272 272 270 269 269 270 271 271 271 270 268 266 262 258 255 253 251 250 248 245 242 239
217 201 206 216 218 202 181 191 223 226 200 201 214 210 194 204 217 205 182 217 226 255 302 287 277 282 253 272 280 276 298 299 302 300 297 285 269 266 264 257 258 259 261 264 267 267 269 273 279 282 280 278 276 274 275 275 276 276 276 275 274 274 272 270 267 264 260 256 254 252 250 248 245 243
224 213 203 209 200 195 202 212 217 218 235 217 202 221 211 215 226 219 208 205 233 251 261 239 254 249 284 243 282 284 275 275 281 287 283 279 275 265 262 269 275 276 279 282 290 302 306 300 288 281 281 281 281 282 282 280 279 277 277 278 279 280 280 280 278 275 270 263 258 255 253 250 247 245
216 222 208 216 203 192 195 214 215 224 228 243 232 206 213 213 218 217 208 212 223 236 238 274 229 256 265 278 267 268 273 280 283 271 275 274 271 270 275 278 293 293 291 297 302 310 321 322 317 311 308 305 295 288 282 282 283 290 298 299 299 298 297 295 292 287 281 275 269 265 262 259 254 249
206 216 219 216 206 196 205 215 218 217 221 228 239 256 242 212 212 217 209 216 206 236 268 275 255 244 254 256 267 268 279 284 279 276 267 268 274 285 288 301 290 295 306 306 315 327 326 323 319 319 317 316 315 311 308 310 331 330 323 320 318 314 310 305 301 297 291 281 271 265 262 260 259 257
203 212 220 219 208 204 203 216 218 213 214 214 221 231 241 243 245 243 251 246 248 241 247 249 287 282 263 285 268 268 264 267 279 289 288 297 295 309 335 325 319 328 321 318 322 322 321 320 325 316 316 315 315 317 323 351 6 12 6 351 337 328 323 319 315 309 303 295 283 270 264 260 256 253
203 208 213 214 211 212 213 214 214 211 214 212 222 223 231 235 223 225 230 225 231 231 245 260 244 264 264 242 275 275 251 261 257 276 298 309 319 13 0 319 315 319 313 301 304 306 305 315 319 314 309 309 314 318 355 38 39 31 23 6 351 338 330 326 323 320 316 310 301 284 268 262 258 254
206 208 210 211 211 212 213 213 216 205 210 209 217 222 219 224 223 231 236 240 240 254 256 250 263 253 262 279 261 289 322 308 307 277 228 272 319 320 303 288 305 310 313 307 317 323 320 323 312 303 303 310 319 337 72 64 48 20 10 2 354 345 339 334 329 325 321 318 313 303 283 269 262 258
207 209 213 217 216 211 215 213 212 209 207 201 213 225 213 218 215 222 225 226 233 244 244 265 264 273 278 268 275 293 285 265 252 265 61 318 292 304 325 310 303 268 308 307 318 321 321 320 318 320 328 328 338 27 49 14 13 11 3 348 343 338 339 338 334 329 325 323 321 316 304 286 272 263
212 213 214 216 216 217 217 216 214 215 213 209 206 211 207 212 212 215 219 223 224 226 238 246 248 262 265 264 250 249 247 243 280 338 349 335 315 342 320 300 288 304 322 320 316 312 312 321 314 328 327 328 355 350 346 346 358 349 343 340 340 343 342 341 336 333 330 326 324 323 315 303 288 274
212 217 218 223 223 217 218 218 218 219 218 217 215 213 207 203 200 208 214 223 214 212 225 234 241 245 261 262 246 239 247 265 284 263 264 277 322 354 337 322 306 290 54 326 314 309 311 336 330 330 335 342 348 341 337 336 353 357 353 354 356 353 349 344 340 334 329 326 324 324 319 308 296 281
211 214 216 220 223 227 220 218 224 223 222 220 221 222 220 215 209 203 200 210 213 209 214 226 235 235 245 266 261 265 279 288 293 281 291 277 287 310 301 294 303 278 31 332 317 301 309 351 352 341 341 345 337 332 326 344 356 354 354 356 358 356 352 349 345 340 332 326 324 325 324 318 308 294
210 212 216 219 222 225 228 221 215 217 226 227 225 223 223 223 216 215 214 206 202 187 202 222 249 237 246 264 263 235 236 223 275 285 290 271 281 271 284 279 279 293 44 18 293 292 298 354 354 347 329 330 322 328 339 351 357 355 358 1 358 356 355 351 347 343 337 329 328 329 327 323 317 305
213 211 212 217 225 228 230 228 216 213 217 219 223 229 232 232 237 232 230 230 232 215 212 214 239 253 197 239 253 256 238 256 258 270 273 270 283 277 270 271 270 294 14 94 196 332 307 347 347 338 322 318 323 326 342 351 352 355 5 7 1 356 353 350 348 347 344 342 340 336 329 326 324 320
216 215 213 213 222 226 232 233 213 211 217 221 224 224 226 228 232 228 227 222 218 214 222 224 233 250 239 232 245 254 242 239 243 207 228 243 242 257 286 313 278 8 35 68 87 355 281 320 342 317 311 324 329 336 346 351 348 359 10 9 4 356 353 350 349 347 347 349 352 343 335 331 330 329
214 216 216 218 221 224 226 234 230 213 205 210 217 221 228 233 234 234 230 224 215 213 214 221 230 236 239 234 232 237 237 228 207 224 327 326 334 342 334 289 297 25 338 44 75 245 290 280 346 306 301 316 330 339 359 347 348 1 7 8 2 355 352 350 347 345 346 350 355 346 344 348 347 349
212 214 216 218 222 223 225 225 223 224 201 208 214 218 224 226 228 240 236 222 221 224 224 223 228 235 240 249 250 228 202 200 188 136 300 277 278 272 301 305 318 305 339 346 14 80 344 329 323 300 307 323 326 3 356 344 346 2 3 4 359 355 351 349 345 342 349 358 359 355 359 12 19 23
217 219 222 217 218 221 226 221 215 217 203 211 211 213 220 222 228 238 230 222 222 228 233 236 240 247 253 247 229 225 223 212 180 194 239 231 165 231 235 271 284 301 7 350 317 41 313 315 326 323 293 312 331 9 355 344 343 359 2 359 357 353 349 346 344 345 357 5 1 358 5 18 21 12
229 234 237 237 230 224 223 214 211 212 200 211 211 207 204 215 223 229 207 219 222 196 210 246 242 247 237 227 222 235 234 232 218 214 231 210 181 222 247 262 336 357 333 310 24 33 308 354 331 353 346 5 229 78 350 341 349 1 359 357 354 353 347 345 345 347 355 14 6 2 4 9 18 21
232 237 243 242 246 241 235 217 208 208 199 207 216 204 211 219 231 218 203 215 205 226 220 237 221 231 224 213 218 234 244 249 224 215 220 211 183 195 223 223 171 203 250 283 24 38 281 17 337 345 81 354 334 337 345 341 354 2 357 353 358 352 347 347 347 346 349 20 10 7 5 358 359 15
220 229 235 240 239 238 236 231 225 213 204 208 210 207 216 219 226 186 210 225 229 235 229 228 212 212 208 210 209 220 236 246 241 195 200 192 188 175 157 121 132 208 264 255 126 74 299 340 337 353 8 67 256 323 327 325 331 2 1 358 352 349 349 350 348 350 345 359 1 11 14 6 2 359
218 225 227 232 236 234 232 230 228 223 215 212 212 219 218 222 195 197 203 199 176 167 198 208 197 182 185 194 209 224 251 282 259 180 152 138 99 110 137 145 138 114 278 274 73 103 95 341 348 17 336 17 317 345 331 344 340 347 353 0 356 345 352 352 352 349 346 341 348 4 12 13 16 11
216 221 225 232 235 232 230 229 228 226 221 214 221 225 221 211 198 198 185 179 183 185 192 193 221 224 202 204 212 245 52 38 60 81 88 97 103 95 100 131 153 161 222 273 348 120 147 52 304 56 351 21 340 331 359 349 342 342 348 1 353 350 354 357 353 346 344 338 349 354 6 21 23 17
215 216 221 227 230 225 225 224 224 226 219 217 224 223 221 200 188 186 188 190 195 194 207 220 220 218 228 168 288 331 114 109 93 84 88 93 111 134 140 110 101 208 260 282 324 154 110 69 0 213 106 24 18 14 346 316 309 336 341 336 346 348 356 2 354 347 346 342 354 0 359 1 7 9
212 214 217 221 222 223 222 221 223 226 225 225 225 221 207 188 181 188 187 193 181 204 221 224 219 214 205 197 183 146 129 114 95 97 80 108 114 113 97 87 53 352 297 328 180 151 109 68 10 212 72 88 88 66 41 325 318 334 342 339 347 348 357 360 352 347 343 343 1 8 1 351 358 6
206 205 209 211 225 237 242 232 226 224 226 225 225 220 193 198 198 189 186 186 193 218 219 223 230 217 195 186 144 141 125 117 128 139 140 109 72 84 81 43 336 327 313 226 162 119 90 51 6 346 53 72 101 68 20 355 339 332 343 356 330 303 5 360 357 350 349 349 0 9 355 353 357 5
171 159 160 164 162 147 171 188 197 224 235 202 200 189 192 199 203 197 191 196 203 211 218 233 220 198 185 131 122 135 133 140 168 162 152 140 148 124 124 124 241 311 297 312 103 127 80 55 46 64 85 113 74 60 344 73 351 336 342 350 357 6 330 345 351 351 351 350 352 5 0 358 360 358
179 159 129 124 136 132 132 164 142 159 163 196 195 200 198 202 199 205 206 198 181 184 183 192 183 169 133 147 154 160 166 174 174 164 150 145 147 142 117 95 222 231 294 335 38 60 67 60 87 74 89 124 129 251 27 83 11 328 330 337 347 318 327 351 348 353 354 347 358 11 11 5 0 356
158 144 161 173 163 176 177 168 177 177 174 187 195 197 194 197 188 181 170 189 193 193 179 194 192 167 154 167 177 173 179 180 159 136 109 83 102 83 91 161 219 200 185 351 62 83 40 49 72 90 94 79 86 139 112 25 342 326 327 331 352 357 352 353 359 352 345 2 12 4 10 7 3 359
185 181 188 194 193 189 192 192 192 190 188 184 185 196 187 184 185 183 186 187 194 187 193 188 170 166 172 179 184 179 152 123 121 112 108 93 85 116 194 228 250 222 194 144 131 160 167 80 88 72 66 60 54 56 139 131 274 303 274 306 14 9 334 345 5 0 355 4 348 4 10 6 5 2
198 194 197 203 202 199 198 201 197 192 188 192 182 187 184 186 187 185 186 192 197 198 186 179 172 170 174 177 155 124 129 138 106 86 94 126 161 178 199 216 250 223 210 117 150 191 163 131 123 102 47 0 8 328 313 181 178 266 237 132 155 60 10 354 21 7 1 4 7 20 13 10 10 2
197 200 198 204 210 207 211 210 206 199 198 193 191 185 190 195 190 184 193 193 192 184 173 173 167 165 161 145 149 144 141 132 136 146 159 177 177 201 204 216 205 220 220 146 173 197 144 151 132 116 128 226 187 289 280 218 204 215 98 26 315 64 41 22 22 20 15 23 16 15 25 13 5 358
196 204 205 206 209 208 215 210 208 211 208 200 196 196 196 193 188 193 199 178 176 175 177 167 163 154 151 160 142 120 135 145 156 166 182 192 190 190 203 197 167 180 143 186 186 191 146 156 162 122 123 50 46 322 281 207 252 247 171 103 73 20 95 55 40 30 26 17 18 30 25 10 1 357
203 201 207 210 210 210 213 215 210 212 213 210 200 191 197 189 178 192 177 168 173 169 173 162 150 149 150 147 143 149 148 165 172 178 191 183 186 194 177 159 177 136 212 189 194 198 199 164 180 167 149 155 264 294 311 260 234 258 154 157 117 162 134 81 42 27 359 4 43 349 15 35 28 8
203 201 202 207 209 209 209 214 213 214 213 210 204 185 180 179 176 172 174 182 173 171 161 147 150 154 151 151 153 154 158 164 185 201 209 208 194 174 158 151 149 196 162 303 264 215 222 205 208 185 175 181 193 212 194 241 265 232 189 153 144 69 30 128 124 286 124 179 274 298 324 290 227 111
204 201 202 202 208 210 217 213 215 214 212 212 211 188 170 169 173 177 178 172 167 157 145 142 140 138 136 142 151 164 170 177 189 206 209 198 179 158 156 158 162 172 151 281 288 234 224 240 220 208 199 208 211 189 159 155 131 157 302 284 166 178 213 149 147 174 269 221 176 102 42 14 45 344
193 195 201 197 203 207 219 223 221 218 188 70 66 60 101 195 180 174 170 161 139 128 128 133 139 143 150 162 172 164 170 196 207 195 180 153 154 154 168 164 163 156 169 226 248 247 233 222 224 216 200 198 127 104 75 53 294 276 246 256 268 248 279 266 176 154 205 190 152 131 150 160 119 18
191 192 190 183 197 214 221 229 227 151 115 129 120 172 200 179 146 139 137 137 131 110 93 126 149 156 165 153 129 132 163 178 171 202 210 178 171 177 169 162 173 170 160 215 225 233 243 256 262 214 158 115 115 154 213 217 233 252 247 249 264 236 227 292 277 219 179 161 141 141 98 1 38 19
180 178 172 166 138 118 112 126 115 125 133 131 155 173 137 164 143 107 74 72 81 128 162 169 163 150 138 133 145 153 163 181 188 189 186 193 178 165 176 194 200 189 185 207 224 247 270 272 269 193 165 161 196 173 219 227 230 210 218 226 225 235 263 259 274 276 265 230 194 170 169 166 141 203
154 129 121 121 113 112 106 121 133 134 147 157 161 161 173 158 127 131 144 147 154 159 156 148 146 147 146 140 151 161 182 186 158 145 187 182 179 146 150 178 207 220 223 217 232 248 252 268 257 171 161 260 204 182 244 256 265 236 202 212 173 164 214 249 266 284 284 281 267 247 219 188 195 192
110 111 113 106 101 87 87 90 98 102 94 100 122 137 123 122 140 145 139 146 152 132 113 120 131 138 144 151 153 178 192 132 121 123 169 147 148 153 155 160 175 212 228 213 183 243 263 251 275 172 171 238 211 225 257 249 265 282 223 170 204 212 205 191 209 242 254 274 246 223 238 243 260 245